SCP
0 0 -0 -0 -0 -0 0 -0 0 0 0 0 0 0 0 0 0 0 0 0 -0 0 -0 0 -0 -0 -0 -0 -0 -0 -0 -0 -0 -0 -0 -0 -0 -0 -0 -0 -0 -0 -0 -0 -0 -0 -0 -0 -0
0 -0 -0 -0 0 -0 -0 -0 0 0 0 0 0 0 0 0 0 0 0 -0 0 -0 -0 -0 -0 -0 -0 -0 -0 -0 -0 -0 -0 -0 -0 -0 -0 -0 -0 -0 -0 -0 -0 -0 -0 -0 -0 -0 -0
0 0 -0 -0 -0 -0 -0 -0 0 0 0 -0 0 0 0 0 0 0 0 -0 -0 -0 -0 -0 -0 -0 -0 -0 -0 -0 -0 -0 -0 -0 -0 -0 -0 -0 -0 -0 -0 -0 -0 -0 -0 -0 -0 -0 -0
0 0 -0 -0 0 -0 0 -0 0 -0 0 -0 0 -0 0 0 0 0 -0 0 -0 -0 -0 -0 -0 -0 -0 -0 -0 -0 -0 -0 -0 -0 -0 -0 -0 -0 -0 -0 -0 -0 -0 -0 -0 -0 -0 -0 -0
-0 0 0 0 -0 -0 -0 -0 -0 -0 0 0 0 -0 -0 -0 -0 0 0 0 -0 -0 -0 -0 -0 -0 -0 -0 -0 -0 -0 -0 -0 -0 -0 -0 -0 -0 -0 -0 0 -0 -0 -0 -0 -0 -0 -0 -0
-0 -0 -0 0 0 0 -0 0 -0 -0 0 -0 -0 -0 -0 -0 -0 -0 -0 0 0 -0 -0 -0 -0 -0 -0 -0 -0 -0 -0 -0 -0 -0 -0 -0 -0 -0 -0 0 -0 -0 -0 -0 -0 -0 -0 -0 -0
-0 -0 -0 -0 -0 0 0 -0 -0 -0 0 0 -0 -0 0 -0 -0 -0 -0 -0 -0 -0 -0 -0 -0 -0 -0 -0 -0 -0 -0 -0 -0 -0 -0 -0 -0 -0 -0 -0 -0 -0 0 -0 -0 -0 -0 -0 -0
0 -0 -0 0 -0 -0 -0 0 -0 -0 0 0 0 -0 -0 -0 -0 -0 -0 -0 -0 -0 -0 -0 -0 -0 -0 -0 -0 -0 -0 -0 -0 -0 -0 -0 -0 -0 -0 -0 -0 -0 0 -0 -0 -0 -0 -0 -0
0 0 0 -0 -0 0 0 0 0 0 -0 0 0 0 0 -0 -0 -0 0 0 0 0 0 0 0 0 0 0 0 0 0 0 0 0 0 0 0 0 0 0 -0 0 0 -0 -0 -0 -0 -0 -0
0 0 0 0 0 0 0 0 -0 0 0 0 0 0 0 0 0 0 0 0 0 0 0 0 0 0 0 0 0 0 0 0 0 0 0 0 0 0 0 0 0 0 0 -0 -0 -0 -0 0 0
0 0 0 0 0 0 0 0 0 0 0 0 0 0 0 0 0 0 0 0 0 0 0 0 0 0 0 0 0 0 0 0 0 0 0 0 0 0 0 0 0 0 0 0 0 0 0 0 0
0 0 0 0 0 0 0 0 0 0 0 0 0 0 0 0 0 0 0 0 0 0 0 0 0 0 0 0 0 0 0 0 0 0 0 0 0 0 0 0 0 0 0 0 0 0 0 0 0
0 0 0 0 0 0 0 0 0 0 0 0 0 0 0 0 0 0 0 0 0 0 0 0 0 0 0 0 0 0 0 0 0 0 0 0 0 0 0 0 0 0 0 0 0 0 0 0 0
0 0 0 0 0 0 0 0 0 0 0 0 0 0 0 0 0 0 0 0 0 0 0 0 0 0 0 0 0 0 0 0 0 0 0 0 0 0 0 0 0 0 0 0 0 0 0 0 0
0 0 0 0 0 0 0 0 0 0 0 0 0 0 0 0 0 0 0 0 0 0 0 0 0 0 0 0 0 0 0 0 0 0 0 0 0 0 0 0 0 0 0 0 0 0 0 0 0
0 0 0 0 0 0 0 0 0 0 0 0 0 0 0 0 0 0 0 0 0 0 0 0 0 0 0 0 0 0 0 0 0 0 0 0 0 0 0 0 0 0 0 0 0 0 0 0 0
0 0 0 0 0 0 0 0 0 0 0 0 0 0 0 0 0 0 0 0 0 0 0 0 0 0 0 0 0 0 0 0 0 0 0 0 0 0 0 0 0 0 0 0 0 0 0 0 0
0 0 0 0 0 0 0 0 0 0 0 0 0 0 0 0 0 0 0 0 0 0 0 0 0 0 0 0 0 0 0 0 0 0 0 0 0 0 0 0 0 0 0 0 0 0 0 0 0
0 0 0 0 0 0 0 0 0 0 0 0 0 0 0 0 0 0 0 0 0 0 0 0 0 0 0 0 0 0 0 0 0 0 0 0 0 0 0 0 0 0 0 0 0 0 0 0 0
0 0 0 0 0 0 0 0 0 0 0 0 0 0 0 0 0 0 0 0 0 0 0 0 0 0 0 0 0 0 0 0 0 0 0 0 0 0 0 0 0 0 0 0 0 0 0 0 0
0 0 0 0 0 0 0 0 0 0 0 0 0 0 0 0 0 0 0 0 0 0 0 0 0 0 0 0 0 0 0 0 0 0 0 0 0 0 0 0 0 0 0 0 0 0 0 0 0
0 0 0 0 0 0 0 -0 0 0 0 0 0 0 0 0 0 0 0 0 0 0 0 0 0 0 0 0 0 0 0 0 0 0 0 0 0 0 0 0 0 0 0 0 0 0 0 0 0
0 0 0 0 0 0 0 0 0 0 0 0 0 0 0 0 0 0 0 0 0 0 0 0 0 0 0 0 0 0 0 0 0 0 0 0 0 0 0 0 0 0 0 0 0 0 0 0 0
0 0 0 0 0 0 0 0 0 0 0 0 0 0 0 0 0 0 0 0 0 0 0 0 0 0 0 0 0 0 0 0 0 0 0 0 0 0 0 0 0 0 0 0 0 0 0 0 0
0 0 0 0 0 0 0 0 0 0 0 0 0 0 0 0 0 0 0 0 0 0 0 0 0 0 0 0 0 0 0 0 0 0 0 0 0 0 0 0 0 0 0 0 0 0 0 0 0
0 0 0 0 0 0 0 0 0 0 0 0 0 0 0 0 0 0 0 0 0 0 0 0 0 0 0 0 0 0 0 0 0 0 0 0 0 0 0 0 0 0 0 0 0 0 0 0 0
0 0 0 0 0 0 0 0 0 0 0 0 0 0 0 0 0 0 0 0 0 0 0 0 0 0 0 0 0 0 0 0 0 0 0 0 0 0 0 0 0 0 0 0 0 0 0 0 0
0 0 0 0 0 0 0 0 0 0 0 -0 -0 -0 0 0 0 0 0 0 0 0 0 0 0 0 0 0 0 0 0 0 0 0 0 0 0 0 0 0 0 0 0 0 0 0 0 0 0
0 0 0 0 0 0 0 0 0 0 0 0 0 -0 0 0 0 0 0 0 0 0 0 0 0 0 0 0 0 0 0 0 0 0 0 0 0 0 0 0 0 0 0 0 0 0 0 0 0
0 0 0 0 0 0 0 0 0 0 0 0 0 0 0 0 0 0 0 0 0 0 0 0 0 0 0 0 0 0 0 0 0 0 0 0 0 0 0 0 0 0 0 0 0 0 0 0 0
Wind_Speed_500mb
7 3 3 1 9 11 1 5 4 4 6 4 13 11 15 13 5 5 31 18 15 23 25 23 22 23 22 22 21 23 23 25 23 20 23 29 33 35 36 36 33 28 26 25 24 23 22 19 17
7 7 3 6 10 7 7 5 8 7 26 38 28 17 12 5 8 18 17 19 22 24 24 23 22 22 21 20 20 20 20 21 19 17 20 23 27 31 33 34 33 31 28 26 24 22 19 15 13
9 4 3 9 8 7 9 7 9 27 37 6 11 15 8 8 18 13 16 25 25 25 25 23 23 21 20 19 19 17 17 16 15 13 15 19 24 28 30 31 30 30 30 30 27 25 21 16 11
7 4 11 9 5 6 9 11 9 23 4 7 25 15 10 11 15 19 20 26 25 22 27 24 22 20 18 17 15 15 14 12 10 8 13 15 19 22 24 26 25 25 25 26 27 25 23 19 15
7 6 9 8 6 3 4 19 30 12 8 14 7 11 10 13 19 20 27 32 24 22 23 23 22 17 17 18 15 13 12 10 8 7 11 12 14 17 21 23 28 26 24 23 25 26 25 24 21
6 6 10 3 3 4 1 22 16 10 11 15 14 21 12 20 21 23 28 32 29 26 23 20 20 22 19 16 17 14 12 10 7 7 10 10 8 11 16 23 29 30 28 21 23 23 23 23 23
12 8 10 11 7 2 8 20 15 17 14 5 27 11 15 29 27 27 29 32 33 35 32 28 28 25 24 21 17 15 14 12 10 8 8 7 5 9 16 18 21 29 35 21 23 22 23 21 21
8 11 8 7 12 10 12 11 21 23 6 26 15 12 13 45 38 36 35 33 37 41 41 39 37 32 30 25 22 18 15 15 12 10 8 6 6 8 10 9 14 21 31 29 30 27 25 23 22
6 9 5 13 14 8 20 9 16 13 24 16 20 13 13 50 46 42 40 38 40 42 43 41 36 36 33 28 28 24 19 17 16 13 11 8 7 8 5 2 7 13 21 23 26 26 25 25 25
9 8 17 12 10 8 15 13 26 14 17 9 17 22 27 51 50 46 44 43 42 44 45 44 37 45 41 39 33 25 24 22 20 18 16 12 11 13 12 7 4 6 11 12 15 20 21 18 19
6 9 10 6 6 12 17 10 16 19 8 25 36 36 44 53 50 48 46 42 40 40 43 43 41 40 44 42 39 37 33 30 25 22 22 19 16 23 24 11 8 8 5 7 4 6 9 8 9
6 3 6 5 4 11 13 11 12 28 13 20 23 36 45 51 52 50 48 44 42 41 42 42 42 42 42 41 41 41 41 39 38 33 29 21 21 27 28 15 13 11 11 5 1 1 2 2 4
4 4 4 7 8 7 10 12 11 26 27 18 27 42 45 48 47 45 42 43 42 41 42 44 44 44 45 49 45 45 43 42 40 41 37 35 30 33 22 19 18 16 10 7 5 4 4 3 5
3 4 5 8 10 9 10 6 8 21 29 26 35 45 47 48 48 47 49 47 44 40 41 41 40 42 46 50 48 46 43 40 38 37 38 36 35 35 29 22 20 21 15 10 8 6 6 6 6
2 5 9 12 12 6 10 10 20 28 32 33 40 46 47 48 50 51 45 46 43 41 41 40 40 42 44 47 50 45 44 43 41 40 37 38 39 38 30 28 28 23 17 13 13 8 3 1 1
6 9 5 4 13 3 13 16 17 41 41 48 47 50 52 53 54 51 51 51 49 47 43 41 40 41 44 49 51 49 50 47 46 45 42 41 40 37 34 31 27 20 18 11 8 5 5 5 5
12 6 8 15 18 5 9 12 5 15 40 51 57 58 58 58 59 57 57 55 53 49 45 41 40 41 46 51 50 51 48 47 40 42 39 40 41 36 34 27 23 20 18 13 10 9 8 9 9
12 8 8 9 6 7 7 23 21 14 33 58 59 62 65 66 70 59 60 60 58 54 49 45 43 43 48 53 50 51 49 47 48 44 43 40 38 37 31 27 23 23 19 16 14 12 14 13 12
9 8 10 7 6 8 15 21 25 34 38 47 55 62 72 76 68 63 64 63 63 61 56 51 47 47 50 57 57 57 56 53 50 47 42 38 38 35 30 28 28 27 23 19 17 13 13 16 16
4 6 12 11 9 12 15 25 24 13 28 62 70 73 80 79 81 73 73 72 72 66 59 55 51 51 57 57 59 60 56 53 51 48 43 38 39 34 31 30 31 29 23 20 17 11 11 15 14
11 13 10 15 6 7 9 16 17 23 42 63 69 77 82 90 91 85 82 81 76 74 67 62 55 55 60 62 63 61 59 56 55 53 48 43 40 35 33 33 33 30 25 21 18 14 11 11 12
14 17 13 10 4 9 5 14 10 11 21 20 69 79 95 98 91 86 87 90 87 80 70 63 57 59 62 64 64 62 63 64 59 52 48 48 42 41 40 37 34 30 25 20 15 13 11 8 5
14 9 13 6 6 5 9 6 7 2 15 29 46 81 91 85 83 88 89 93 89 82 73 67 63 63 62 66 64 64 62 60 57 55 55 54 52 49 44 38 33 27 22 18 14 11 7 4 3
15 11 11 8 6 6 18 16 11 13 17 12 44 77 75 66 67 72 71 79 92 82 75 71 70 68 67 67 69 68 65 66 67 66 64 61 60 56 48 41 33 27 21 17 12 8 4 5 7
7 12 5 7 1 18 6 11 36 12 20 25 32 66 53 35 40 49 61 73 89 88 82 78 75 74 73 71 72 70 68 66 65 64 68 71 67 59 51 41 33 26 21 15 10 5 5 9 11
15 18 12 15 9 11 3 14 13 21 40 51 59 65 57 47 33 39 50 62 78 90 87 82 80 77 77 76 73 71 69 68 67 67 72 70 62 54 48 42 35 27 21 15 10 4 3 6 8
12 16 9 4 4 3 11 15 16 21 24 30 56 52 53 41 40 46 52 58 70 90 90 85 82 82 79 78 76 75 74 74 73 72 72 65 58 53 49 42 35 29 24 17 10 5 1 2 4
13 15 4 2 6 10 10 12 15 13 21 31 22 51 45 34 36 41 47 54 64 83 86 84 83 83 81 82 80 79 78 76 74 76 73 67 61 56 50 44 39 32 25 18 13 8 5 2 1
6 11 6 9 11 11 5 15 16 27 21 20 24 41 39 37 35 36 40 48 59 77 86 84 83 84 84 83 81 82 80 78 78 79 74 68 63 57 51 45 40 34 27 23 19 14 10 5 3
7 7 14 9 10 9 4 30 7 16 17 23 34 27 20 23 24 27 37 44 57 75 84 84 83 85 87 82 80 81 80 82 85 82 76 70 64 58 51 47 42 37 32 28 23 19 14 9 7
Wind_Direction_500mb
223 195 186 122 55 66 287 238 314 110 40 26 116 126 131 63 103 189 148 151 166 168 157 155 152 144 137 123 111 101 93 89 88 82 64 58 57 59 64 66 70 72 69 68 71 75 75 72 71
174 166 144 104 86 78 269 263 199 176 137 103 90 94 57 75 91 135 151 157 157 169 163 159 160 154 146 131 124 119 110 98 98 83 77 67 64 60 57 59 63 68 71 72 72 75 79 80 76
156 144 129 90 107 158 185 211 186 144 143 97 111 80 84 103 125 150 147 146 150 169 171 165 165 164 159 148 140 130 120 108 104 77 79 73 73 65 57 53 52 55 58 63 67 70 72 72 63
176 110 67 79 137 212 190 178 167 142 240 191 128 77 105 154 155 162 159 153 157 170 172 171 172 170 173 167 157 146 136 130 118 100 94 88 79 65 58 52 49 51 54 57 61 67 73 78 71
129 79 53 75 335 270 215 164 163 160 151 151 146 156 123 156 163 160 156 156 163 166 178 179 177 182 182 179 169 162 158 151 135 123 108 104 77 63 53 43 34 34 40 51 55 57 60 62 62
81 81 66 127 276 354 176 173 169 149 144 146 126 130 144 160 160 163 159 163 165 170 174 178 187 179 176 185 185 179 178 170 155 141 134 125 92 59 47 41 40 46 40 53 60 61 62 62 60
111 78 161 158 195 264 214 184 173 153 138 133 145 122 165 171 173 174 173 181 178 173 183 183 207 201 198 196 204 195 191 188 181 171 157 154 119 79 63 58 50 40 37 60 62 62 59 58 59
107 92 110 184 186 221 180 170 173 156 148 151 168 177 189 183 180 184 186 192 191 185 191 197 208 208 211 214 211 208 198 198 202 200 199 180 143 80 105 59 54 46 49 58 54 55 56 58 59
112 68 151 192 159 232 168 146 159 169 153 178 193 202 207 185 186 189 192 194 199 203 205 209 208 209 207 215 223 220 212 209 212 210 212 205 180 154 187 107 81 68 60 70 57 56 52 55 58
79 103 199 189 197 223 183 175 160 160 161 196 191 197 184 187 192 199 202 205 207 210 213 216 220 211 212 216 217 225 229 228 224 224 233 229 210 200 205 209 163 97 87 94 72 49 49 55 52
125 167 192 205 232 231 174 185 174 158 226 204 199 187 181 189 197 203 208 213 218 218 218 220 220 217 219 216 213 212 224 228 218 217 233 229 220 219 205 214 227 188 149 136 96 69 57 49 41
97 144 162 189 205 177 172 171 194 199 216 224 213 202 194 198 204 206 210 214 218 220 222 224 224 224 224 225 209 207 214 223 222 221 223 228 226 243 185 231 224 197 174 176 223 191 356 23 12
101 184 182 194 226 215 192 205 217 227 234 226 209 201 205 207 212 214 218 223 223 222 224 226 226 226 224 222 213 208 210 217 219 219 222 220 221 211 230 240 221 206 208 232 255 253 293 273 333
136 158 240 224 222 227 196 219 208 230 230 218 206 205 207 212 215 217 219 221 223 224 226 227 226 225 224 222 215 212 212 212 210 213 218 217 218 223 229 226 231 209 223 243 235 280 288 311 354
46 328 338 232 209 229 194 286 239 234 217 210 200 205 210 214 218 225 228 227 228 228 228 230 230 227 224 216 208 211 208 210 213 215 213 209 218 215 223 233 221 231 239 233 247 255 234 303 102
54 48 10 320 159 236 157 261 261 232 214 212 213 214 218 222 228 227 226 227 229 229 230 231 231 226 219 211 207 203 206 209 210 211 212 207 208 220 224 229 229 228 219 217 186 199 206 185 158
6 238 210 314 200 130 176 265 274 218 215 224 222 224 227 230 231 229 228 229 231 232 233 234 232 226 215 206 206 202 205 211 213 217 217 222 221 222 228 221 212 210 192 185 191 180 179 179 160
202 215 236 235 207 174 228 262 268 257 222 233 234 232 234 236 239 235 234 231 231 231 232 231 231 223 213 204 204 200 204 205 208 212 212 212 215 221 208 205 202 190 190 190 179 174 157 147 147
147 186 214 238 226 174 227 253 261 242 233 241 241 238 238 240 244 237 236 234 233 230 229 229 226 220 209 204 199 201 204 203 208 209 210 217 209 203 202 204 195 190 189 176 158 155 150 147 148
166 211 252 280 247 184 263 255 258 214 232 235 240 240 241 243 244 238 233 233 231 230 228 226 223 217 208 209 204 201 202 204 205 207 206 207 201 199 202 203 193 179 176 165 159 152 160 155 166
226 200 218 226 348 243 327 279 241 250 236 251 251 253 254 251 248 242 232 231 229 227 225 225 221 217 211 203 202 201 203 205 204 202 205 203 197 197 191 185 179 173 176 177 169 162 163 173 164
235 205 192 218 124 244 151 284 262 247 255 234 252 252 255 253 251 250 238 231 228 226 223 222 219 216 212 205 205 209 210 204 204 202 203 200 193 187 181 179 180 182 178 179 176 169 165 136 114
226 137 171 155 166 18 207 262 250 36 260 255 252 254 257 257 257 253 245 236 230 224 221 219 216 214 208 204 206 209 210 213 207 203 201 196 186 182 181 182 183 181 179 179 173 158 136 93 39
145 80 57 59 104 255 224 189 216 197 223 241 249 256 262 266 263 257 251 238 228 222 219 217 215 212 208 205 208 210 210 211 205 203 199 191 184 182 182 182 181 183 182 176 163 147 105 53 22
126 96 309 323 19 242 46 177 253 281 254 230 253 266 277 274 265 256 244 233 226 218 215 213 213 211 205 208 209 210 210 213 217 213 200 191 187 185 185 183 185 187 184 173 161 134 74 41 23
189 165 173 210 205 269 86 232 249 228 249 252 259 266 273 273 269 263 251 237 228 216 215 214 213 211 208 207 208 208 209 213 215 216 202 196 193 190 187 186 187 187 182 179 172 153 53 18 3
191 208 201 23 110 359 226 280 286 256 266 269 258 264 264 269 267 260 248 236 227 217 215 215 213 211 212 208 208 209 210 212 214 209 200 196 193 192 191 190 191 190 189 187 185 189 276 338 349
172 157 82 9 233 251 266 262 225 247 242 249 267 262 266 267 261 256 248 237 227 218 216 215 216 217 215 213 210 211 211 212 211 205 199 197 196 195 195 194 193 194 193 196 195 207 221 258 351
148 203 188 145 166 195 285 252 217 216 207 221 243 258 275 277 265 258 252 239 228 218 217 218 218 217 218 218 214 214 214 211 207 204 201 200 200 199 199 199 199 199 202 204 209 211 214 209 233
207 237 160 148 228 246 179 260 180 205 206 213 249 260 273 293 281 254 250 240 226 218 218 220 221 220 220 221 217 216 212 207 204 204 204 203 203 202 203 203 203 206 209 209 212 217 216 226 242
Wind_Speed_850mb
7 3 3 1 9 11 1 5 4 4 6 4 13 11 15 13 5 5 31 18 15 23 25 23 22 23 22 22 21 23 23 25 23 20 23 29 33 35 36 36 33 28 26 25 24 23 22 19 17
7 7 3 6 10 7 7 5 8 7 26 38 28 17 12 5 8 18 17 19 22 24 24 23 22 22 21 20 20 20 20 21 19 17 20 23 27 31 33 34 33 31 28 26 24 22 19 15 13
9 4 3 9 8 7 9 7 9 27 37 6 11 15 8 8 18 13 16 25 25 25 25 23 23 21 20 19 19 17 17 16 15 13 15 19 24 28 30 31 30 30 30 30 27 25 21 16 11
7 4 11 9 5 6 9 11 9 23 4 7 25 15 10 11 15 19 20 26 25 22 27 24 22 20 18 17 15 15 14 12 10 8 13 15 19 22 24 26 25 25 25 26 27 25 23 19 15
7 6 9 8 6 3 4 19 30 12 8 14 7 11 10 13 19 20 27 32 24 22 23 23 22 17 17 18 15 13 12 10 8 7 11 12 14 17 21 23 28 26 24 23 25 26 25 24 21
6 6 10 3 3 4 1 22 16 10 11 15 14 21 12 20 21 23 28 32 29 26 23 20 20 22 19 16 17 14 12 10 7 7 10 10 8 11 16 23 29 30 28 21 23 23 23 23 23
12 8 10 11 7 2 8 20 15 17 14 5 27 11 15 29 27 27 29 32 33 35 32 28 28 25 24 21 17 15 14 12 10 8 8 7 5 9 16 18 21 29 35 21 23 22 23 21 21
8 11 8 7 12 10 12 11 21 23 6 26 15 12 13 45 38 36 35 33 37 41 41 39 37 32 30 25 22 18 15 15 12 10 8 6 6 8 10 9 14 21 31 29 30 27 25 23 22
6 9 5 13 14 8 20 9 16 13 24 16 20 13 13 50 46 42 40 38 40 42 43 41 36 36 33 28 28 24 19 17 16 13 11 8 7 8 5 2 7 13 21 23 26 26 25 25 25
9 8 17 12 10 8 15 13 26 14 17 9 17 22 27 51 50 46 44 43 42 44 45 44 37 45 41 39 33 25 24 22 20 18 16 12 11 13 12 7 4 6 11 12 15 20 21 18 19
6 9 10 6 6 12 17 10 16 19 8 25 36 36 44 53 50 48 46 42 40 40 43 43 41 40 44 42 39 37 33 30 25 22 22 19 16 23 24 11 8 8 5 7 4 6 9 8 9
6 3 6 5 4 11 13 11 12 28 13 20 23 36 45 51 52 50 48 44 42 41 42 42 42 42 42 41 41 41 41 39 38 33 29 21 21 27 28 15 13 11 11 5 1 1 2 2 4
4 4 4 7 8 7 10 12 11 26 27 18 27 42 45 48 47 45 42 43 42 41 42 44 44 44 45 49 45 45 43 42 40 41 37 35 30 33 22 19 18 16 10 7 5 4 4 3 5
3 4 5 8 10 9 10 6 8 21 29 26 35 45 47 48 48 47 49 47 44 40 41 41 40 42 46 50 48 46 43 40 38 37 38 36 35 35 29 22 20 21 15 10 8 6 6 6 6
2 5 9 12 12 6 10 10 20 28 32 33 40 46 47 48 50 51 45 46 43 41 41 40 40 42 44 47 50 45 44 43 41 40 37 38 39 38 30 28 28 23 17 13 13 8 3 1 1
6 9 5 4 13 3 13 16 17 41 41 48 47 50 52 53 54 51 51 51 49 47 43 41 40 41 44 49 51 49 50 47 46 45 42 41 40 37 34 31 27 20 18 11 8 5 5 5 5
12 6 8 15 18 5 9 12 5 15 40 51 57 58 58 58 59 57 57 55 53 49 45 41 40 41 46 51 50 51 48 47 40 42 39 40 41 36 34 27 23 20 18 13 10 9 8 9 9
12 8 8 9 6 7 7 23 21 14 33 58 59 62 65 66 70 59 60 60 58 54 49 45 43 43 48 53 50 51 49 47 48 44 43 40 38 37 31 27 23 23 19 16 14 12 14 13 12
9 8 10 7 6 8 15 21 25 34 38 47 55 62 72 76 68 63 64 63 63 61 56 51 47 47 50 57 57 57 56 53 50 47 42 38 38 35 30 28 28 27 23 19 17 13 13 16 16
4 6 12 11 9 12 15 25 24 13 28 62 70 73 80 79 81 73 73 72 72 66 59 55 51 51 57 57 59 60 56 53 51 48 43 38 39 34 31 30 31 29 23 20 17 11 11 15 14
11 13 10 15 6 7 9 16 17 23 42 63 69 77 82 90 91 85 82 81 76 74 67 62 55 55 60 62 63 61 59 56 55 53 48 43 40 35 33 33 33 30 25 21 18 14 11 11 12
14 17 13 10 4 9 5 14 10 11 21 20 69 79 95 98 91 86 87 90 87 80 70 63 57 59 62 64 64 62 63 64 59 52 48 48 42 41 40 37 34 30 25 20 15 13 11 8 5
14 9 13 6 6 5 9 6 7 2 15 29 46 81 91 85 83 88 89 93 89 82 73 67 63 63 62 66 64 64 62 60 57 55 55 54 52 49 44 38 33 27 22 18 14 11 7 4 3
15 11 11 8 6 6 18 16 11 13 17 12 44 77 75 66 67 72 71 79 92 82 75 71 70 68 67 67 69 68 65 66 67 66 64 61 60 56 48 41 33 27 21 17 12 8 4 5 7
7 12 5 7 1 18 6 11 36 12 20 25 32 66 53 35 40 49 61 73 89 88 82 78 75 74 73 71 72 70 68 66 65 64 68 71 67 59 51 41 33 26 21 15 10 5 5 9 11
15 18 12 15 9 11 3 14 13 21 40 51 59 65 57 47 33 39 50 62 78 90 87 82 80 77 77 76 73 71 69 68 67 67 72 70 62 54 48 42 35 27 21 15 10 4 3 6 8
12 16 9 4 4 3 11 15 16 21 24 30 56 52 53 41 40 46 52 58 70 90 90 85 82 82 79 78 76 75 74 74 73 72 72 65 58 53 49 42 35 29 24 17 10 5 1 2 4
13 15 4 2 6 10 10 12 15 13 21 31 22 51 45 34 36 41 47 54 64 83 86 84 83 83 81 82 80 79 78 76 74 76 73 67 61 56 50 44 39 32 25 18 13 8 5 2 1
6 11 6 9 11 11 5 15 16 27 21 20 24 41 39 37 35 36 40 48 59 77 86 84 83 84 84 83 81 82 80 78 78 79 74 68 63 57 51 45 40 34 27 23 19 14 10 5 3
7 7 14 9 10 9 4 30 7 16 17 23 34 27 20 23 24 27 37 44 57 75 84 84 83 85 87 82 80 81 80 82 85 82 76 70 64 58 51 47 42 37 32 28 23 19 14 9 7
Wind_Direction_850mb
223 195 186 122 55 66 287 238 314 110 40 26 116 126 131 63 103 189 148 151 166 168 157 155 152 144 137 123 111 101 93 89 88 82 64 58 57 59 64 66 70 72 69 68 71 75 75 72 71
174 166 144 104 86 78 269 263 199 176 137 103 90 94 57 75 91 135 151 157 157 169 163 159 160 154 146 131 124 119 110 98 98 83 77 67 64 60 57 59 63 68 71 72 72 75 79 80 76
156 144 129 90 107 158 185 211 186 144 143 97 111 80 84 103 125 150 147 146 150 169 171 165 165 164 159 148 140 130 120 108 104 77 79 73 73 65 57 53 52 55 58 63 67 70 72 72 63
176 110 67 79 137 212 190 178 167 142 240 191 128 77 105 154 155 162 159 153 157 170 172 171 172 170 173 167 157 146 136 130 118 100 94 88 79 65 58 52 49 51 54 57 61 67 73 78 71
129 79 53 75 335 270 215 164 163 160 151 151 146 156 123 156 163 160 156 156 163 166 178 179 177 182 182 179 169 162 158 151 135 123 108 104 77 63 53 43 34 34 40 51 55 57 60 62 62
81 81 66 127 276 354 176 173 169 149 144 146 126 130 144 160 160 163 159 163 165 170 174 178 187 179 176 185 185 179 178 170 155 141 134 125 92 59 47 41 40 46 40 53 60 61 62 62 60
111 78 161 158 195 264 214 184 173 153 138 133 145 122 165 171 173 174 173 181 178 173 183 183 207 201 198 196 204 195 191 188 181 171 157 154 119 79 63 58 50 40 37 60 62 62 59 58 59
107 92 110 184 186 221 180 170 173 156 148 151 168 177 189 183 180 184 186 192 191 185 191 197 208 208 211 214 211 208 198 198 202 200 199 180 143 80 105 59 54 46 49 58 54 55 56 58 59
112 68 151 192 159 232 168 146 159 169 153 178 193 202 207 185 186 189 192 194 199 203 205 209 208 209 207 215 223 220 212 209 212 210 212 205 180 154 187 107 81 68 60 70 57 56 52 55 58
79 103 199 189 197 223 183 175 160 160 161 196 191 197 184 187 192 199 202 205 207 210 213 216 220 211 212 216 217 225 229 228 224 224 233 229 210 200 205 209 163 97 87 94 72 49 49 55 52
125 167 192 205 232 231 174 185 174 158 226 204 199 187 181 189 197 203 208 213 218 218 218 220 220 217 219 216 213 212 224 228 218 217 233 229 220 219 205 214 227 188 149 136 96 69 57 49 41
97 144 162 189 205 177 172 171 194 199 216 224 213 202 194 198 204 206 210 214 218 220 222 224 224 224 224 225 209 207 214 223 222 221 223 228 226 243 185 231 224 197 174 176 223 191 356 23 12
101 184 182 194 226 215 192 205 217 227 234 226 209 201 205 207 212 214 218 223 223 222 224 226 226 226 224 222 213 208 210 217 219 219 222 220 221 211 230 240 221 206 208 232 255 253 293 273 333
136 158 240 224 222 227 196 219 208 230 230 218 206 205 207 212 215 217 219 221 223 224 226 227 226 225 224 222 215 212 212 212 210 213 218 217 218 223 229 226 231 209 223 243 235 280 288 311 354
46 328 338 232 209 229 194 286 239 234 217 210 200 205 210 214 218 225 228 227 228 228 228 230 230 227 224 216 208 211 208 210 213 215 213 209 218 215 223 233 221 231 239 233 247 255 234 303 102
54 48 10 320 159 236 157 261 261 232 214 212 213 214 218 222 228 227 226 227 229 229 230 231 231 226 219 211 207 203 206 209 210 211 212 207 208 220 224 229 229 228 219 217 186 199 206 185 158
6 238 210 314 200 130 176 265 274 218 215 224 222 224 227 230 231 229 228 229 231 232 233 234 232 226 215 206 206 202 205 211 213 217 217 222 221 222 228 221 212 210 192 185 191 180 179 179 160
202 215 236 235 207 174 228 262 268 257 222 233 234 232 234 236 239 235 234 231 231 231 232 231 231 223 213 204 204 200 204 205 208 212 212 212 215 221 208 205 202 190 190 190 179 174 157 147 147
147 186 214 238 226 174 227 253 261 242 233 241 241 238 238 240 244 237 236 234 233 230 229 229 226 220 209 204 199 201 204 203 208 209 210 217 209 203 202 204 195 190 189 176 158 155 150 147 148
166 211 252 280 247 184 263 255 258 214 232 235 240 240 241 243 244 238 233 233 231 230 228 226 223 217 208 209 204 201 202 204 205 207 206 207 201 199 202 203 193 179 176 165 159 152 160 155 166
226 200 218 226 348 243 327 279 241 250 236 251 251 253 254 251 248 242 232 231 229 227 225 225 221 217 211 203 202 201 203 205 204 202 205 203 197 197 191 185 179 173 176 177 169 162 163 173 164
235 205 192 218 124 244 151 284 262 247 255 234 252 252 255 253 251 250 238 231 228 226 223 222 219 216 212 205 205 209 210 204 204 202 203 200 193 187 181 179 180 182 178 179 176 169 165 136 114
226 137 171 155 166 18 207 262 250 36 260 255 252 254 257 257 257 253 245 236 230 224 221 219 216 214 208 204 206 209 210 213 207 203 201 196 186 182 181 182 183 181 179 179 173 158 136 93 39
145 80 57 59 104 255 224 189 216 197 223 241 249 256 262 266 263 257 251 238 228 222 219 217 215 212 208 205 208 210 210 211 205 203 199 191 184 182 182 182 181 183 182 176 163 147 105 53 22
126 96 309 323 19 242 46 177 253 281 254 230 253 266 277 274 265 256 244 233 226 218 215 213 213 211 205 208 209 210 210 213 217 213 200 191 187 185 185 183 185 187 184 173 161 134 74 41 23
189 165 173 210 205 269 86 232 249 228 249 252 259 266 273 273 269 263 251 237 228 216 215 214 213 211 208 207 208 208 209 213 215 216 202 196 193 190 187 186 187 187 182 179 172 153 53 18 3
191 208 201 23 110 359 226 280 286 256 266 269 258 264 264 269 267 260 248 236 227 217 215 215 213 211 212 208 208 209 210 212 214 209 200 196 193 192 191 190 191 190 189 187 185 189 276 338 349
172 157 82 9 233 251 266 262 225 247 242 249 267 262 266 267 261 256 248 237 227 218 216 215 216 217 215 213 210 211 211 212 211 205 199 197 196 195 195 194 193 194 193 196 195 207 221 258 351
148 203 188 145 166 195 285 252 217 216 207 221 243 258 275 277 265 258 252 239 228 218 217 218 218 217 218 218 214 214 214 211 207 204 201 200 200 199 199 199 199 199 202 204 209 211 214 209 233
207 237 160 148 228 246 179 260 180 205 206 213 249 260 273 293 281 254 250 240 226 218 218 220 221 220 220 221 217 216 212 207 204 204 204 203 203 202 203 203 203 206 209 209 212 217 216 226 242